User: anonymous   Login
Location: Tafessasset
(32.5899°N, 5.4824°W)
Time: 21:51:45
(UTC+00:00)
Language:

PSLV R/B - Orbit

View from above orbital plane
View from above orbital plane
View from above satellite
View from above satellite

Ground track
Ground track

The orbit data is extracted from the following two-line orbital elements,

1 26960U 01049D   20158.40612917 +.00000569 +00000-0 +39827-4 0  9996
2 26960 097.8103 151.4498 0056065 078.7472 282.0050 15.08225335017573
Epoch (UTC): 06 June 2020 09:44:49
Eccentricity: 0.0056065
inclination: 97.8103°
perigee height: 503 km
apogee height: 580 km
right ascension of ascending node: 151.4498°
argument of perigee: 78.7472°
revolutions per day: 15.08225335
mean anomaly at epoch: 282.0050°
orbit number at epoch: 1757

The dashed part of the orbit path shows where the satellite is in the earth's shadow,  

DLR